Year,Month,Day,Hour,Minute,Value (Times are PST for temperature in C)
2014,09,03,00,00,13.30
2014,09,03,00,01,13.30
2014,09,03,00,02,13.30
2014,09,03,00,03,13.30
2014,09,03,00,04,13.30
2014,09,03,00,05,13.30
2014,09,03,00,06,13.30
2014,09,03,00,07,13.30
2014,09,03,00,08,13.30
2014,09,03,00,09,13.30
2014,09,03,00,10,13.30
2014,09,03,00,11,13.30
2014,09,03,00,12,13.30
2014,09,03,00,13,13.30
2014,09,03,00,14,13.30
2014,09,03,00,15,13.30
2014,09,03,00,16,13.30
2014,09,03,00,17,13.30
2014,09,03,00,18,13.30
2014,09,03,00,19,13.30
2014,09,03,00,20,13.30
2014,09,03,00,21,13.30
2014,09,03,00,22,13.30
2014,09,03,00,23,13.30
2014,09,03,00,24,13.30
2014,09,03,00,25,13.30
2014,09,03,00,26,13.20
2014,09,03,00,27,13.20
2014,09,03,00,28,13.20
2014,09,03,00,29,13.20
2014,09,03,00,30,13.20
2014,09,03,00,31,13.20
2014,09,03,00,32,13.20
2014,09,03,00,33,13.20
2014,09,03,00,34,13.20
2014,09,03,00,35,13.20
2014,09,03,00,36,13.20
2014,09,03,00,37,13.20
2014,09,03,00,38,13.20
2014,09,03,00,39,13.20
2014,09,03,00,40,13.20
2014,09,03,00,41,13.20
2014,09,03,00,42,13.20
2014,09,03,00,43,13.20
2014,09,03,00,44,13.20
2014,09,03,00,45,13.20
2014,09,03,00,46,13.20
2014,09,03,00,47,13.20
2014,09,03,00,48,13.20
2014,09,03,00,49,13.20
2014,09,03,00,50,13.20
2014,09,03,00,51,13.20
2014,09,03,00,52,13.20
2014,09,03,00,53,13.20
2014,09,03,00,54,13.20
2014,09,03,00,55,13.20
2014,09,03,00,56,13.20
2014,09,03,00,57,13.20
2014,09,03,00,58,13.20
2014,09,03,00,59,13.10
2014,09,03,01,00,13.20
2014,09,03,01,01,13.10
2014,09,03,01,02,13.10
2014,09,03,01,03,13.10
2014,09,03,01,04,13.10
2014,09,03,01,05,13.10
2014,09,03,01,06,13.10
2014,09,03,01,07,13.10
2014,09,03,01,08,13.10
2014,09,03,01,09,13.10
2014,09,03,01,10,13.10
2014,09,03,01,11,13.10
2014,09,03,01,12,13.10
2014,09,03,01,13,13.10
2014,09,03,01,14,13.10
2014,09,03,01,15,13.10
2014,09,03,01,16,13.10
2014,09,03,01,17,13.10
2014,09,03,01,18,13.10
2014,09,03,01,19,13.10
2014,09,03,01,20,13.10
2014,09,03,01,21,13.00
2014,09,03,01,22,13.00
2014,09,03,01,23,13.00
2014,09,03,01,24,13.00
2014,09,03,01,25,13.00
2014,09,03,01,26,13.00
2014,09,03,01,27,13.00
2014,09,03,01,28,13.00
2014,09,03,01,29,13.00
2014,09,03,01,30,13.00
2014,09,03,01,31,12.90
2014,09,03,01,32,12.90
2014,09,03,01,33,12.90
2014,09,03,01,34,12.90
2014,09,03,01,35,12.90
2014,09,03,01,36,12.90
2014,09,03,01,37,12.90
2014,09,03,01,38,12.90
2014,09,03,01,39,12.90
2014,09,03,01,40,12.90
2014,09,03,01,41,12.80
2014,09,03,01,42,12.80
2014,09,03,01,43,12.80
2014,09,03,01,44,12.80
2014,09,03,01,45,12.80
2014,09,03,01,46,12.80
2014,09,03,01,47,12.80
2014,09,03,01,48,12.80
2014,09,03,01,49,12.80
2014,09,03,01,50,12.80
2014,09,03,01,51,12.80
2014,09,03,01,52,12.80
2014,09,03,01,53,12.80
2014,09,03,01,54,12.80
2014,09,03,01,55,12.80
2014,09,03,01,56,12.80
2014,09,03,01,57,12.80
2014,09,03,01,58,12.80
2014,09,03,01,59,12.80
2014,09,03,02,00,12.80
2014,09,03,02,01,12.80
2014,09,03,02,02,12.70
2014,09,03,02,03,12.70
2014,09,03,02,04,12.70
2014,09,03,02,05,12.70
2014,09,03,02,06,12.70
2014,09,03,02,07,12.70
2014,09,03,02,08,12.70
2014,09,03,02,09,12.70
2014,09,03,02,10,12.70
2014,09,03,02,11,12.60
2014,09,03,02,12,12.60
2014,09,03,02,13,12.60
2014,09,03,02,14,12.60
2014,09,03,02,15,12.60
2014,09,03,02,16,12.50
2014,09,03,02,17,12.50
2014,09,03,02,18,12.50
2014,09,03,02,19,12.50
2014,09,03,02,20,12.50
2014,09,03,02,21,12.50
2014,09,03,02,22,12.40
2014,09,03,02,23,12.40
2014,09,03,02,24,12.40
2014,09,03,02,25,12.40
2014,09,03,02,26,12.40
2014,09,03,02,27,12.30
2014,09,03,02,28,12.30
2014,09,03,02,29,12.30
2014,09,03,02,30,12.30
2014,09,03,02,31,12.30
2014,09,03,02,32,12.30
2014,09,03,02,33,12.30
2014,09,03,02,34,12.30
2014,09,03,02,35,12.30
2014,09,03,02,36,12.30
2014,09,03,02,37,12.20
2014,09,03,02,38,12.20
2014,09,03,02,39,12.20
2014,09,03,02,40,12.20
2014,09,03,02,41,12.10
2014,09,03,02,42,12.10
2014,09,03,02,43,12.10
2014,09,03,02,44,12.10
2014,09,03,02,45,12.10
2014,09,03,02,46,12.10
2014,09,03,02,47,12.00
2014,09,03,02,48,12.00
2014,09,03,02,49,12.00
2014,09,03,02,50,12.00
2014,09,03,02,51,12.00
2014,09,03,02,52,12.00
2014,09,03,02,53,11.90
2014,09,03,02,54,11.90
2014,09,03,02,55,11.90
2014,09,03,02,56,11.90
2014,09,03,02,57,11.90
2014,09,03,02,58,11.80
2014,09,03,02,59,11.80
2014,09,03,03,00,11.80
2014,09,03,03,01,11.80
2014,09,03,03,02,11.80
2014,09,03,03,03,11.80
2014,09,03,03,04,11.80
2014,09,03,03,05,11.80
2014,09,03,03,06,11.80
2014,09,03,03,07,11.70
2014,09,03,03,08,11.70
2014,09,03,03,09,11.70
2014,09,03,03,10,11.60
2014,09,03,03,11,11.60
2014,09,03,03,12,11.60
2014,09,03,03,13,11.60
2014,09,03,03,14,11.60
2014,09,03,03,15,11.60
2014,09,03,03,16,11.60
2014,09,03,03,17,11.60
2014,09,03,03,18,11.60
2014,09,03,03,19,11.60
2014,09,03,03,20,11.60
2014,09,03,03,21,11.60
2014,09,03,03,22,11.60
2014,09,03,03,23,11.60
2014,09,03,03,24,11.60
2014,09,03,03,25,11.60
2014,09,03,03,26,11.60
2014,09,03,03,27,11.60
2014,09,03,03,28,11.60
2014,09,03,03,29,11.60
2014,09,03,03,30,11.60
2014,09,03,03,31,11.60
2014,09,03,03,32,11.50
2014,09,03,03,33,11.40
2014,09,03,03,34,11.40
2014,09,03,03,35,11.40
2014,09,03,03,36,11.40
2014,09,03,03,37,11.40
2014,09,03,03,38,11.40
2014,09,03,03,39,11.40
2014,09,03,03,40,11.40
2014,09,03,03,41,11.30
2014,09,03,03,42,11.30
2014,09,03,03,43,11.30
2014,09,03,03,44,11.30
2014,09,03,03,45,11.20
2014,09,03,03,46,11.20
2014,09,03,03,47,11.20
2014,09,03,03,48,11.20
2014,09,03,03,49,11.20
2014,09,03,03,50,11.20
2014,09,03,03,51,11.20
2014,09,03,03,52,11.20
2014,09,03,03,53,11.20
2014,09,03,03,54,11.20
2014,09,03,03,55,11.20
2014,09,03,03,56,11.10
2014,09,03,03,57,11.10
2014,09,03,03,58,11.10
2014,09,03,03,59,11.10
2014,09,03,04,00,11.10
2014,09,03,04,01,11.10
2014,09,03,04,02,10.90
2014,09,03,04,03,10.90
2014,09,03,04,04,10.90
2014,09,03,04,05,10.90
2014,09,03,04,06,10.90
2014,09,03,04,07,10.90
2014,09,03,04,08,10.90
2014,09,03,04,09,10.90
2014,09,03,04,10,10.90
2014,09,03,04,11,10.80
2014,09,03,04,12,10.80
2014,09,03,04,13,10.80
2014,09,03,04,14,10.80
2014,09,03,04,15,10.80
2014,09,03,04,16,10.70
2014,09,03,04,17,10.70
2014,09,03,04,18,10.70
2014,09,03,04,19,10.70
2014,09,03,04,20,10.70
2014,09,03,04,21,10.70
2014,09,03,04,22,10.70
2014,09,03,04,23,10.60
2014,09,03,04,24,10.60
2014,09,03,04,25,10.60
2014,09,03,04,26,10.60
2014,09,03,04,27,10.60
2014,09,03,04,28,10.60
2014,09,03,04,29,10.60
2014,09,03,04,30,10.60
2014,09,03,04,31,10.60
2014,09,03,04,32,10.60
2014,09,03,04,33,10.60
2014,09,03,04,34,10.60
2014,09,03,04,35,10.60
2014,09,03,04,36,10.60
2014,09,03,04,37,10.60
2014,09,03,04,38,10.50
2014,09,03,04,39,10.40
2014,09,03,04,40,10.40
2014,09,03,04,41,10.40
2014,09,03,04,42,10.40
2014,09,03,04,43,10.30
2014,09,03,04,44,10.30
2014,09,03,04,45,10.30
2014,09,03,04,46,10.30
2014,09,03,04,47,10.30
2014,09,03,04,48,10.30
2014,09,03,04,49,10.30
2014,09,03,04,50,10.30
2014,09,03,04,51,10.30
2014,09,03,04,52,10.30
2014,09,03,04,53,10.40
2014,09,03,04,54,10.40
2014,09,03,04,55,10.40
2014,09,03,04,56,10.40
2014,09,03,04,57,10.40
2014,09,03,04,58,10.40
2014,09,03,04,59,10.40
2014,09,03,05,00,10.40
2014,09,03,05,01,10.40
2014,09,03,05,02,10.40
2014,09,03,05,03,10.40
2014,09,03,05,04,10.40
2014,09,03,05,05,10.40
2014,09,03,05,06,10.40
2014,09,03,05,07,10.40
2014,09,03,05,08,10.40
2014,09,03,05,09,10.40
2014,09,03,05,10,10.40
2014,09,03,05,11,10.40
2014,09,03,05,12,10.30
2014,09,03,05,13,10.30
2014,09,03,05,14,10.30
2014,09,03,05,15,10.30
2014,09,03,05,16,10.20
2014,09,03,05,17,10.20
2014,09,03,05,18,10.20
2014,09,03,05,19,10.20
2014,09,03,05,20,10.20
2014,09,03,05,21,10.20
2014,09,03,05,22,10.20
2014,09,03,05,23,10.10
2014,09,03,05,24,10.10
2014,09,03,05,25,10.10
2014,09,03,05,26,10.10
2014,09,03,05,27,10.10
2014,09,03,05,28,10.10
2014,09,03,05,29,10.10
2014,09,03,05,30,10.10
2014,09,03,05,31,10.10
2014,09,03,05,32,10.10
2014,09,03,05,33,10.10
2014,09,03,05,34,10.10
2014,09,03,05,35,10.10
2014,09,03,05,36,10.10
2014,09,03,05,37,10.10
2014,09,03,05,38,10.10
2014,09,03,05,39,9.90
2014,09,03,05,40,9.90
2014,09,03,05,41,9.90
2014,09,03,05,42,9.90
2014,09,03,05,43,10.00
2014,09,03,05,44,10.10
2014,09,03,05,45,10.10
2014,09,03,05,46,10.00
2014,09,03,05,47,9.90
2014,09,03,05,48,9.90
2014,09,03,05,49,9.90
2014,09,03,05,50,9.90
2014,09,03,05,51,9.90
2014,09,03,05,52,9.90
2014,09,03,05,53,9.90
2014,09,03,05,54,9.90
2014,09,03,05,55,9.90
2014,09,03,05,56,9.90
2014,09,03,05,57,9.90
2014,09,03,05,58,9.90
2014,09,03,05,59,9.90
2014,09,03,06,00,9.90
2014,09,03,06,01,9.90
2014,09,03,06,02,9.90
2014,09,03,06,03,9.90
2014,09,03,06,04,9.90
2014,09,03,06,05,9.90
2014,09,03,06,06,9.90
2014,09,03,06,07,9.80
2014,09,03,06,08,9.80
2014,09,03,06,09,9.90
2014,09,03,06,10,9.80
2014,09,03,06,11,9.80
2014,09,03,06,12,9.70
2014,09,03,06,13,9.70
2014,09,03,06,14,9.70
2014,09,03,06,15,9.70
2014,09,03,06,16,9.70
2014,09,03,06,17,9.70
2014,09,03,06,18,9.70
2014,09,03,06,19,9.80
2014,09,03,06,20,9.80
2014,09,03,06,21,9.80
2014,09,03,06,22,9.80
2014,09,03,06,23,9.80
2014,09,03,06,24,9.80
2014,09,03,06,25,9.80
2014,09,03,06,26,9.80
2014,09,03,06,27,9.80
2014,09,03,06,28,9.80
2014,09,03,06,29,9.70
2014,09,03,06,30,9.80
2014,09,03,06,31,9.80
2014,09,03,06,32,9.80
2014,09,03,06,33,9.70
2014,09,03,06,34,9.70
2014,09,03,06,35,9.70
2014,09,03,06,36,9.70
2014,09,03,06,37,9.70
2014,09,03,06,38,9.70
2014,09,03,06,39,9.80
2014,09,03,06,40,9.80
2014,09,03,06,41,9.80
2014,09,03,06,42,9.80
2014,09,03,06,43,9.80
2014,09,03,06,44,9.70
2014,09,03,06,45,9.70
2014,09,03,06,46,9.80
2014,09,03,06,47,9.80
2014,09,03,06,48,9.80
2014,09,03,06,49,9.90
2014,09,03,06,50,9.90
2014,09,03,06,51,9.90
2014,09,03,06,52,9.90
2014,09,03,06,53,9.90
2014,09,03,06,54,9.90
2014,09,03,06,55,9.90
2014,09,03,06,56,10.00
2014,09,03,06,57,10.10
2014,09,03,06,58,10.00
2014,09,03,06,59,9.90
2014,09,03,07,00,9.90
2014,09,03,07,01,9.90
2014,09,03,07,02,9.90
2014,09,03,07,03,9.90
2014,09,03,07,04,9.90
2014,09,03,07,05,9.90
2014,09,03,07,06,9.90
2014,09,03,07,07,9.90
2014,09,03,07,08,9.90
2014,09,03,07,09,9.90
2014,09,03,07,10,9.90
2014,09,03,07,11,10.00
2014,09,03,07,12,10.10
2014,09,03,07,13,10.10
2014,09,03,07,14,10.10
2014,09,03,07,15,10.10
2014,09,03,07,16,10.10
2014,09,03,07,17,10.10
2014,09,03,07,18,10.10
2014,09,03,07,19,10.10
2014,09,03,07,20,10.10
2014,09,03,07,21,10.20
2014,09,03,07,22,10.20
2014,09,03,07,23,10.20
2014,09,03,07,24,10.20
2014,09,03,07,25,10.30
2014,09,03,07,26,10.30
2014,09,03,07,27,10.30
2014,09,03,07,28,10.30
2014,09,03,07,29,10.30
2014,09,03,07,30,10.30
2014,09,03,07,31,10.30
2014,09,03,07,32,10.40
2014,09,03,07,33,10.40
2014,09,03,07,34,10.40
2014,09,03,07,35,10.40
2014,09,03,07,36,10.40
2014,09,03,07,37,10.40
2014,09,03,07,38,10.40
2014,09,03,07,39,10.40
2014,09,03,07,40,10.40
2014,09,03,07,41,10.50
2014,09,03,07,42,10.60
2014,09,03,07,43,10.60
2014,09,03,07,44,10.60
2014,09,03,07,45,10.60
2014,09,03,07,46,10.70
2014,09,03,07,47,10.80
2014,09,03,07,48,10.80
2014,09,03,07,49,10.90
2014,09,03,07,50,11.00
2014,09,03,07,51,11.10
2014,09,03,07,52,11.20
2014,09,03,07,53,11.30
2014,09,03,07,54,11.40
2014,09,03,07,55,11.50
2014,09,03,07,56,11.60
2014,09,03,07,57,11.60
2014,09,03,07,58,11.70
2014,09,03,07,59,11.80
2014,09,03,08,00,11.80
2014,09,03,08,01,11.90
2014,09,03,08,02,12.00
2014,09,03,08,03,12.00
2014,09,03,08,04,12.10
2014,09,03,08,05,12.20
2014,09,03,08,06,12.30
2014,09,03,08,07,12.40
2014,09,03,08,08,12.40
2014,09,03,08,09,12.40
2014,09,03,08,10,12.40
2014,09,03,08,11,12.40
2014,09,03,08,12,12.40
2014,09,03,08,13,12.40
2014,09,03,08,14,12.40
2014,09,03,08,15,12.40
2014,09,03,08,16,12.40
2014,09,03,08,17,12.40
2014,09,03,08,18,12.40
2014,09,03,08,19,12.40
2014,09,03,08,20,12.40
2014,09,03,08,21,12.40
2014,09,03,08,22,12.40
2014,09,03,08,23,12.40
2014,09,03,08,24,12.50
2014,09,03,08,25,12.50
2014,09,03,08,26,12.50
2014,09,03,08,27,12.50
2014,09,03,08,28,12.60
2014,09,03,08,29,12.60
2014,09,03,08,30,12.60
2014,09,03,08,31,12.60
2014,09,03,08,32,12.60
2014,09,03,08,33,12.60
2014,09,03,08,34,12.60
2014,09,03,08,35,12.60
2014,09,03,08,36,12.60
2014,09,03,08,37,12.60
2014,09,03,08,38,12.60
2014,09,03,08,39,12.60
2014,09,03,08,40,12.60
2014,09,03,08,41,12.60
2014,09,03,08,42,12.60
2014,09,03,08,43,12.60
2014,09,03,08,44,12.60
2014,09,03,08,45,12.60
2014,09,03,08,46,12.60
2014,09,03,08,47,12.70
2014,09,03,08,48,12.80
2014,09,03,08,49,12.80
2014,09,03,08,50,12.80
2014,09,03,08,51,12.80
2014,09,03,08,52,12.80
2014,09,03,08,53,12.80
2014,09,03,08,54,12.80
2014,09,03,08,55,12.80
2014,09,03,08,56,12.90
2014,09,03,08,57,13.00
2014,09,03,08,58,13.00
2014,09,03,08,59,13.10
2014,09,03,09,00,13.10
2014,09,03,09,01,13.20
2014,09,03,09,02,13.10
2014,09,03,09,03,13.10
2014,09,03,09,04,13.00
2014,09,03,09,05,12.90
2014,09,03,09,06,12.90
2014,09,03,09,07,13.00
2014,09,03,09,08,13.00
2014,09,03,09,09,13.00
2014,09,03,09,10,13.00
2014,09,03,09,11,13.10
2014,09,03,09,12,13.10
2014,09,03,09,13,13.20
2014,09,03,09,14,13.20
2014,09,03,09,15,13.20
2014,09,03,09,16,13.20
2014,09,03,09,17,13.20
2014,09,03,09,18,13.20
2014,09,03,09,19,13.20
2014,09,03,09,20,13.20
2014,09,03,09,21,13.20
2014,09,03,09,22,13.20
2014,09,03,09,23,13.20
2014,09,03,09,24,13.20
2014,09,03,09,25,13.30
2014,09,03,09,26,13.30
2014,09,03,09,27,13.30
2014,09,03,09,28,13.30
2014,09,03,09,29,13.40
2014,09,03,09,30,13.40
2014,09,03,09,31,13.40
2014,09,03,09,32,13.30
2014,09,03,09,33,13.30
2014,09,03,09,34,13.30
2014,09,03,09,35,13.40
2014,09,03,09,36,13.40
2014,09,03,09,37,13.40
2014,09,03,09,38,13.50
2014,09,03,09,39,13.40
2014,09,03,09,40,13.40
2014,09,03,09,41,13.40
2014,09,03,09,42,13.50
2014,09,03,09,43,13.50
2014,09,03,09,44,13.50
2014,09,03,09,45,13.50
2014,09,03,09,46,13.50
2014,09,03,09,47,13.40
2014,09,03,09,48,13.30
2014,09,03,09,49,13.30
2014,09,03,09,50,13.30
2014,09,03,09,51,13.30
2014,09,03,09,52,13.30
2014,09,03,09,53,13.20
2014,09,03,09,54,13.20
2014,09,03,09,55,13.20
2014,09,03,09,56,13.20
2014,09,03,09,57,13.20
2014,09,03,09,58,13.30
2014,09,03,09,59,13.30
2014,09,03,10,00,13.20
2014,09,03,10,01,13.20
2014,09,03,10,02,13.20
2014,09,03,10,03,13.20
2014,09,03,10,04,13.20
2014,09,03,10,05,13.20
2014,09,03,10,06,13.30
2014,09,03,10,07,13.30
2014,09,03,10,08,13.30
2014,09,03,10,09,13.40
2014,09,03,10,10,13.40
2014,09,03,10,11,13.50
2014,09,03,10,12,13.50
2014,09,03,10,13,13.50
2014,09,03,10,14,13.50
2014,09,03,10,15,13.50
2014,09,03,10,16,13.50
2014,09,03,10,17,13.60
2014,09,03,10,18,13.60
2014,09,03,10,19,13.60
2014,09,03,10,20,13.70
2014,09,03,10,21,13.70
2014,09,03,10,22,13.70
2014,09,03,10,23,13.80
2014,09,03,10,24,13.80
2014,09,03,10,25,13.80
2014,09,03,10,26,13.90
2014,09,03,10,27,13.90
2014,09,03,10,28,14.00
2014,09,03,10,29,14.10
2014,09,03,10,30,14.20
2014,09,03,10,31,14.30
2014,09,03,10,32,14.30
2014,09,03,10,33,14.40
2014,09,03,10,34,14.50
2014,09,03,10,35,14.60
2014,09,03,10,36,14.60
2014,09,03,10,37,14.70
2014,09,03,10,38,14.80
2014,09,03,10,39,14.90
2014,09,03,10,40,15.00
2014,09,03,10,41,15.00
2014,09,03,10,42,15.10
2014,09,03,10,43,15.20
2014,09,03,10,44,15.30
2014,09,03,10,45,15.30
2014,09,03,10,46,15.30
2014,09,03,10,47,15.30
2014,09,03,10,48,15.30
2014,09,03,10,49,15.30
2014,09,03,10,50,15.30
2014,09,03,10,51,15.30
2014,09,03,10,52,15.40
2014,09,03,10,53,15.50
2014,09,03,10,54,15.50
2014,09,03,10,55,15.50
2014,09,03,10,56,15.60
2014,09,03,10,57,15.60
2014,09,03,10,58,15.60
2014,09,03,10,59,15.70
2014,09,03,11,00,15.70
2014,09,03,11,01,15.80
2014,09,03,11,02,15.80
2014,09,03,11,03,15.80
2014,09,03,11,04,15.90
2014,09,03,11,05,15.90
2014,09,03,11,06,16.00
2014,09,03,11,07,16.10
2014,09,03,11,08,16.10
2014,09,03,11,09,16.10
2014,09,03,11,10,16.10
2014,09,03,11,11,16.10
2014,09,03,11,12,16.10
2014,09,03,11,13,16.20
2014,09,03,11,14,16.30
2014,09,03,11,15,16.30
2014,09,03,11,16,16.30
2014,09,03,11,17,16.30
2014,09,03,11,18,16.40
2014,09,03,11,19,16.40
2014,09,03,11,20,16.40
2014,09,03,11,21,16.40
2014,09,03,11,22,16.40
2014,09,03,11,23,16.40
2014,09,03,11,24,16.30
2014,09,03,11,25,16.30
2014,09,03,11,26,16.30
2014,09,03,11,27,16.30
2014,09,03,11,28,16.30
2014,09,03,11,29,16.30
2014,09,03,11,30,16.20
2014,09,03,11,31,16.20
2014,09,03,11,32,16.20
2014,09,03,11,33,16.20
2014,09,03,11,34,16.20
2014,09,03,11,35,16.10
2014,09,03,11,36,16.10
2014,09,03,11,37,16.20
2014,09,03,11,38,16.20
2014,09,03,11,39,16.20
2014,09,03,11,40,16.20
2014,09,03,11,41,16.30
2014,09,03,11,42,16.30
2014,09,03,11,43,16.30
2014,09,03,11,44,16.30
2014,09,03,11,45,16.20
2014,09,03,11,46,16.10
2014,09,03,11,47,16.10
2014,09,03,11,48,16.10
2014,09,03,11,49,16.10
2014,09,03,11,50,16.10
2014,09,03,11,51,16.10
2014,09,03,11,52,16.10
2014,09,03,11,53,16.10
2014,09,03,11,54,16.10
2014,09,03,11,55,16.10
2014,09,03,11,56,16.00
2014,09,03,11,57,16.00
2014,09,03,11,58,16.10
2014,09,03,11,59,16.10
2014,09,03,12,00,16.10
2014,09,03,12,01,16.10
2014,09,03,12,02,16.20
2014,09,03,12,03,16.20
2014,09,03,12,04,16.20
2014,09,03,12,05,16.20
2014,09,03,12,06,16.20
2014,09,03,12,07,16.10
2014,09,03,12,08,16.10
2014,09,03,12,09,16.20
2014,09,03,12,10,16.20
2014,09,03,12,11,16.30
2014,09,03,12,12,16.30
2014,09,03,12,13,16.30
2014,09,03,12,14,16.40
2014,09,03,12,15,16.40
2014,09,03,12,16,16.50
2014,09,03,12,17,16.60
2014,09,03,12,18,16.70
2014,09,03,12,19,16.70
2014,09,03,12,20,16.70
2014,09,03,12,21,16.60
2014,09,03,12,22,16.50
2014,09,03,12,23,16.40
2014,09,03,12,24,16.40
2014,09,03,12,25,16.30
2014,09,03,12,26,16.30
2014,09,03,12,27,16.20
2014,09,03,12,28,16.10
2014,09,03,12,29,16.10
2014,09,03,12,30,16.00
2014,09,03,12,31,15.90
2014,09,03,12,32,15.90
2014,09,03,12,33,15.90
2014,09,03,12,34,15.90
2014,09,03,12,35,15.90
2014,09,03,12,36,15.90
2014,09,03,12,37,16.00
2014,09,03,12,38,16.10
2014,09,03,12,39,16.00
2014,09,03,12,40,16.00
2014,09,03,12,41,16.10
2014,09,03,12,42,16.10
2014,09,03,12,43,16.10
2014,09,03,12,44,16.10
2014,09,03,12,45,16.20
2014,09,03,12,46,16.20
2014,09,03,12,47,16.30
2014,09,03,12,48,16.30
2014,09,03,12,49,16.40
2014,09,03,12,50,16.40
2014,09,03,12,51,16.40
2014,09,03,12,52,16.50
2014,09,03,12,53,16.50
2014,09,03,12,54,16.40
2014,09,03,12,55,16.40
2014,09,03,12,56,16.30
2014,09,03,12,57,16.20
2014,09,03,12,58,16.20
2014,09,03,12,59,16.20
2014,09,03,13,00,16.20
2014,09,03,13,01,16.20
2014,09,03,13,02,16.20
2014,09,03,13,03,16.20
2014,09,03,13,04,16.20
2014,09,03,13,05,16.10
2014,09,03,13,06,16.10
2014,09,03,13,07,16.10
2014,09,03,13,08,16.10
2014,09,03,13,09,16.10
2014,09,03,13,10,16.10
2014,09,03,13,11,16.00
2014,09,03,13,12,15.90
2014,09,03,13,13,16.00
2014,09,03,13,14,16.10
2014,09,03,13,15,16.10
2014,09,03,13,16,16.20
2014,09,03,13,17,16.20
2014,09,03,13,18,16.20
2014,09,03,13,19,16.30
2014,09,03,13,20,16.30
2014,09,03,13,21,16.30
2014,09,03,13,22,16.30
2014,09,03,13,23,16.30
2014,09,03,13,24,16.30
2014,09,03,13,25,16.30
2014,09,03,13,26,16.40
2014,09,03,13,27,16.40
2014,09,03,13,28,16.40
2014,09,03,13,29,16.40
2014,09,03,13,30,16.40
2014,09,03,13,31,16.40
2014,09,03,13,32,16.30
2014,09,03,13,33,16.30
2014,09,03,13,34,16.30
2014,09,03,13,35,16.30
2014,09,03,13,36,16.30
2014,09,03,13,37,16.30
2014,09,03,13,38,16.30
2014,09,03,13,39,16.30
2014,09,03,13,40,16.30
2014,09,03,13,41,16.20
2014,09,03,13,42,16.20
2014,09,03,13,43,16.20
2014,09,03,13,44,16.10
2014,09,03,13,45,16.10
2014,09,03,13,46,16.10
2014,09,03,13,47,16.10
2014,09,03,13,48,16.10
2014,09,03,13,49,16.10
2014,09,03,13,50,16.10
2014,09,03,13,51,16.10
2014,09,03,13,52,16.10
2014,09,03,13,53,16.00
2014,09,03,13,54,15.90
2014,09,03,13,55,15.90
2014,09,03,13,56,15.80
2014,09,03,13,57,15.80
2014,09,03,13,58,15.80
2014,09,03,13,59,15.80
2014,09,03,14,00,15.70
2014,09,03,14,01,15.70
2014,09,03,14,02,15.70
2014,09,03,14,03,15.70
2014,09,03,14,04,15.70
2014,09,03,14,05,15.70
2014,09,03,14,06,15.70
2014,09,03,14,07,15.80
2014,09,03,14,08,15.80
2014,09,03,14,09,15.80
2014,09,03,14,10,15.80
2014,09,03,14,11,15.70
2014,09,03,14,12,15.70
2014,09,03,14,13,15.60
2014,09,03,14,14,15.60
2014,09,03,14,15,15.50
2014,09,03,14,16,15.50
2014,09,03,14,17,15.50
2014,09,03,14,18,15.60
2014,09,03,14,19,15.60
2014,09,03,14,20,15.60
2014,09,03,14,21,15.70
2014,09,03,14,22,15.80
2014,09,03,14,23,15.80
2014,09,03,14,24,15.80
2014,09,03,14,25,15.90
2014,09,03,14,26,16.00
2014,09,03,14,27,16.10
2014,09,03,14,28,16.10
2014,09,03,14,29,16.10
2014,09,03,14,30,16.10
2014,09,03,14,31,16.10
2014,09,03,14,32,16.20
2014,09,03,14,33,16.20
2014,09,03,14,34,16.20
2014,09,03,14,35,16.10
2014,09,03,14,36,16.10
2014,09,03,14,37,16.00
2014,09,03,14,38,15.90
2014,09,03,14,39,15.90
2014,09,03,14,40,15.80
2014,09,03,14,41,15.80
2014,09,03,14,42,15.90
2014,09,03,14,43,15.90
2014,09,03,14,44,16.10
2014,09,03,14,45,16.10
2014,09,03,14,46,16.10
2014,09,03,14,47,16.20
2014,09,03,14,48,16.20
2014,09,03,14,49,16.30
2014,09,03,14,50,16.30
2014,09,03,14,51,16.30
2014,09,03,14,52,16.30
2014,09,03,14,53,16.30
2014,09,03,14,54,16.30
2014,09,03,14,55,16.30
2014,09,03,14,56,16.30
2014,09,03,14,57,16.20
2014,09,03,14,58,16.30
2014,09,03,14,59,16.30
2014,09,03,15,00,16.30
2014,09,03,15,01,16.30
2014,09,03,15,02,16.30
2014,09,03,15,03,16.30
2014,09,03,15,04,16.30
2014,09,03,15,05,16.30
2014,09,03,15,06,16.30
2014,09,03,15,07,16.30
2014,09,03,15,08,16.30
2014,09,03,15,09,16.40
2014,09,03,15,10,16.40
2014,09,03,15,11,16.40
2014,09,03,15,12,16.50
2014,09,03,15,13,16.40
2014,09,03,15,14,16.40
2014,09,03,15,15,16.40
2014,09,03,15,16,16.60
2014,09,03,15,17,16.60
2014,09,03,15,18,16.60
2014,09,03,15,19,16.60
2014,09,03,15,20,16.60
2014,09,03,15,21,16.60
2014,09,03,15,22,16.50
2014,09,03,15,23,16.40
2014,09,03,15,24,16.40
2014,09,03,15,25,16.40
2014,09,03,15,26,16.40
2014,09,03,15,27,16.40
2014,09,03,15,28,16.40
2014,09,03,15,29,16.40
2014,09,03,15,30,16.50
2014,09,03,15,31,16.50
2014,09,03,15,32,16.40
2014,09,03,15,33,16.30
2014,09,03,15,34,16.20
2014,09,03,15,35,16.20
2014,09,03,15,36,16.20
2014,09,03,15,37,16.10
2014,09,03,15,38,16.10
2014,09,03,15,39,16.10
2014,09,03,15,40,16.10
2014,09,03,15,41,15.90
2014,09,03,15,42,15.90
2014,09,03,15,43,15.80
2014,09,03,15,44,15.80
2014,09,03,15,45,15.80
2014,09,03,15,46,15.80
2014,09,03,15,47,15.80
2014,09,03,15,48,15.80
2014,09,03,15,49,15.80
2014,09,03,15,50,15.80
2014,09,03,15,51,15.80
2014,09,03,15,52,15.80
2014,09,03,15,53,15.80
2014,09,03,15,54,15.80
2014,09,03,15,55,15.90
2014,09,03,15,56,15.90
2014,09,03,15,57,15.90
2014,09,03,15,58,16.00
2014,09,03,15,59,16.10
2014,09,03,16,00,16.10
2014,09,03,16,01,16.10
2014,09,03,16,02,16.10
2014,09,03,16,03,16.10
2014,09,03,16,04,16.10
2014,09,03,16,05,16.10
2014,09,03,16,06,16.10
2014,09,03,16,07,16.10
2014,09,03,16,08,16.10
2014,09,03,16,09,16.10
2014,09,03,16,10,16.20
2014,09,03,16,11,16.20
2014,09,03,16,12,16.20
2014,09,03,16,13,16.20
2014,09,03,16,14,16.30
2014,09,03,16,15,16.30
2014,09,03,16,16,16.30
2014,09,03,16,17,16.40
2014,09,03,16,18,16.40
2014,09,03,16,19,16.40
2014,09,03,16,20,16.50
2014,09,03,16,21,16.60
2014,09,03,16,22,16.60
2014,09,03,16,23,16.60
2014,09,03,16,24,16.50
2014,09,03,16,25,16.40
2014,09,03,16,26,16.40
2014,09,03,16,27,16.40
2014,09,03,16,28,16.30
2014,09,03,16,29,16.30
2014,09,03,16,30,16.30
2014,09,03,16,31,16.30
2014,09,03,16,32,16.30
2014,09,03,16,33,16.40
2014,09,03,16,34,16.40
2014,09,03,16,35,16.40
2014,09,03,16,36,16.40
2014,09,03,16,37,16.40
2014,09,03,16,38,16.40
2014,09,03,16,39,16.40
2014,09,03,16,40,16.40
2014,09,03,16,41,16.40
2014,09,03,16,42,16.40
2014,09,03,16,43,16.40
2014,09,03,16,44,16.40
2014,09,03,16,45,16.40
2014,09,03,16,46,16.40
2014,09,03,16,47,16.40
2014,09,03,16,48,16.60
2014,09,03,16,49,16.60
2014,09,03,16,50,16.60
2014,09,03,16,51,16.70
2014,09,03,16,52,16.70
2014,09,03,16,53,16.70
2014,09,03,16,54,16.70
2014,09,03,16,55,16.70
2014,09,03,16,56,16.70
2014,09,03,16,57,16.80
2014,09,03,16,58,16.80
2014,09,03,16,59,16.90
2014,09,03,17,00,16.90
2014,09,03,17,01,16.90
2014,09,03,17,02,16.90
2014,09,03,17,03,16.90
2014,09,03,17,04,16.90
2014,09,03,17,05,16.80
2014,09,03,17,06,16.80
2014,09,03,17,07,16.80
2014,09,03,17,08,16.80
2014,09,03,17,09,16.80
2014,09,03,17,10,16.70
2014,09,03,17,11,16.70
2014,09,03,17,12,16.70
2014,09,03,17,13,16.70
2014,09,03,17,14,16.80
2014,09,03,17,15,16.80
2014,09,03,17,16,16.80
2014,09,03,17,17,16.90
2014,09,03,17,18,16.90
2014,09,03,17,19,16.90
2014,09,03,17,20,17.00
2014,09,03,17,21,17.00
2014,09,03,17,22,17.10
2014,09,03,17,23,17.10